STARLINK-3856, 52459

Orbit data source: Space-Track

STARLINK-3856, 52459 is a payload satellite owned by SpaceX/Seattle (US) in LEO that was launched on Fri, 06 May 2022 UTC via an FALCON 9 launch vehicle from the Air Force Eastern Test Range (AFETR). Payload-class satellites include a variety of spacecraft equipped with specific instruments for various scientific and technological missions. These include communications satellites like Starlink; space stations such as the ISS; scientific satellites like the Hubble; Earth observation satellites from companies like Planet Labs, Umbra, and HawkEye 360; GPS; miniature CubeSats for education and research; and military/defense satellites.

Loading next visibility...
Identifier
52459, 2022-049J
Orbit
LEO
Country
Flag of USUS
Related business
Manufacturer
SpaceX/Seattle
Mission
Operational spacecraft
Bus & Motor
STARLINK, Unknown motor
Mass
297 kg wet, ~220 kg dry
Launch date (UTC)
2022-05-06 (4 years ago)
Launch vehicle
FALCON 9
Launch site
Air Force Eastern Test Range (AFETR)
Object type
Payload
Rocket body
Debris
Shape & HBR
Unknown shape, 10.1 m
Radar Cross Section
Large (>1 m²)

Expand to show TLE details & history
Last TLE update: 15 hours ago

TLE from 15 hours ago
0 STARLINK-3856
1 52459U 22049J   25346.76907860 -.00000973  00000-0 -43055-4 0  9997
2 52459  53.2176  89.3214 0001428  95.0525 265.0630 15.08832832199123
Epoch: 2025-12-12T18:27Z
TLE epoch observation values (Epoch: 2025-12-12T18:27:28.391Z)
Latitude
-0.00001°
Longitude
90.74714°
Altitude
540.748 km
Speed
7.593 km/s
True Right ascension
05h 57m 17s
True Declination
0° 00' 00"
Sunlit
Object was in full shadow at epoch
Visualization orbit readout
Latitude
Unknown
Longitude
Unknown
Altitude
Unknown
Speed
Unknown
Apparent Right ascension
Unknown
Apparent Declination
Unknown
Sunlit
N/A
Visualization observer readout
Local Sidereal Time
07:26:33
Azimuth
Unknown
Elevation
Unknown
Doppler factor
Unknown
Orbital elements
Apogee altitude
540.998 km
Perigee altitude
539.022 km
Semi-major axis
6,918.147 km
Eccentricity
0.00014
Inclination
53.2176°
RAAN
89.3214°
Arg. of periapsis
95.0525°
True anomaly
265.0467°
Mean anomaly
265.063°
Eccentric anomaly
265.05485°
Mean motion
3.77189 °/min
Orbital period
95.44 mins
BSTAR
-0.000043055
Loading maneuver chart data...
Computing Atmospheric mass density...
Loading historical data...
Loading historical data...
Loading historical data...
Loading historical data...
Loading historical data...
Loading historical data...
Loading historical data...

Documentation

Showing up to 5 results
|